| time (UTC) | temp C | wind direction | speed KPH | gust KPH | rain 1hr cm | rain 24hr cm | rain mn cm | humidity % | barometer mb |
| 20260507111534 | 2 | 166 | 3.2 | 14.5 | 0.00 | 0.03 | 0.00 | 79 | 1016.1 |
| 20260507110031 | 2 | 190 | 3.2 | 9.7 | 0.00 | 0.03 | 0.00 | 79 | 1016.1 |
| 20260507104532 | 2 | 169 | 4.8 | 16.1 | 0.00 | 0.03 | 0.00 | 80 | 1016.3 |
| 20260507103033 | 2 | 182 | 1.6 | 9.7 | 0.00 | 0.03 | 0.00 | 80 | 1016.2 |
| 20260507101532 | 2 | 196 | 4.8 | 12.9 | 0.00 | 0.03 | 0.00 | 81 | 1016.1 |
| 20260507100033 | 2 | 195 | 3.2 | 9.7 | 0.00 | 0.03 | 0.00 | 81 | 1016.2 |
| 20260507094530 | 2 | 190 | 3.2 | 9.7 | 0.00 | 0.03 | 0.00 | 81 | 1016.1 |
| 20260507093030 | 2 | 166 | 3.2 | 9.7 | 0.00 | 0.03 | 0.00 | 80 | 1015.9 |
| 20260507091540 | 3 | 195 | 3.2 | 8.0 | 0.00 | 0.03 | 0.00 | 79 | 1015.8 |
| 20260507090037 | 3 | 160 | 3.2 | 9.7 | 0.00 | 0.03 | 0.00 | 78 | 1015.7 |
| 20260507084530 | 3 | 163 | 3.2 | 11.3 | 0.00 | 0.03 | 0.00 | 77 | 1015.7 |
| 20260507083033 | 3 | 216 | 4.8 | 11.3 | 0.00 | 0.03 | 0.00 | 76 | 1015.5 |
| 20260507081532 | 3 | 233 | 3.2 | 9.7 | 0.00 | 0.03 | 0.00 | 76 | 1015.5 |
| 20260507080035 | 3 | 195 | 1.6 | 11.3 | 0.00 | 0.03 | 0.00 | 75 | 1015.2 |
| 20260507074530 | 3 | 171 | 3.2 | 11.3 | 0.00 | 0.03 | 0.03 | 75 | 1015.1 |
| 20260507073032 | 3 | 156 | 3.2 | 8.0 | 0.00 | 0.03 | 0.03 | 74 | 1015.0 |
| 20260507071531 | 4 | 175 | 1.6 | 12.9 | 0.00 | 0.03 | 0.03 | 73 | 1014.9 |
| 20260507070033 | 4 | 157 | 3.2 | 11.3 | 0.00 | 0.03 | 0.03 | 73 | 1014.9 |
| 20260507064529 | 4 | 195 | 3.2 | 11.3 | 0.00 | 0.03 | 0.03 | 72 | 1014.8 |
| 20260507063029 | 4 | 163 | 1.6 | 8.0 | 0.00 | 0.03 | 0.03 | 70 | 1014.6 |
| 20260507061532 | 5 | 0 | 0.0 | 4.8 | 0.00 | 0.03 | 0.03 | 69 | 1014.4 |
| 20260507060032 | 5 | 0 | 0.0 | 14.5 | 0.00 | 0.03 | 0.03 | 67 | 1014.2 |
| 20260507054536 | 5 | 161 | 3.2 | 8.0 | 0.00 | 0.03 | 0.03 | 66 | 1014.0 |
| 20260507053033 | 5 | 192 | 1.6 | 12.9 | 0.00 | 0.03 | 0.03 | 65 | 1013.9 |
| 20260507051532 | 6 | 196 | 3.2 | 9.7 | 0.00 | 0.03 | 0.03 | 64 | 1013.7 |
| 20260507050029 | 6 | 180 | 3.2 | 9.7 | 0.00 | 0.03 | 0.03 | 63 | 1013.7 |
| 20260507044530 | 7 | 169 | 3.2 | 17.7 | 0.00 | 0.03 | 0.03 | 61 | 1013.5 |
| 20260507043032 | 7 | 186 | 4.8 | 14.5 | 0.00 | 0.03 | 0.03 | 61 | 1013.5 |
| 20260507041530 | 7 | 0 | 0.0 | 11.3 | 0.00 | 0.03 | 0.03 | 59 | 1013.4 |
| 20260507040033 | 7 | 207 | 4.8 | 19.3 | 0.00 | 0.03 | 0.03 | 58 | 1013.5 |
| 20260507034532 | 7 | 221 | 4.8 | 14.5 | 0.00 | 0.03 | 0.03 | 57 | 1013.4 |
| 20260507033032 | 7 | 220 | 6.4 | 14.5 | 0.00 | 0.03 | 0.03 | 57 | 1013.1 |
| 20260507031530 | 7 | 149 | 3.2 | 16.1 | 0.00 | 0.03 | 0.03 | 57 | 1013.0 |
| 20260507030031 | 8 | 161 | 3.2 | 14.5 | 0.00 | 0.03 | 0.03 | 55 | 1012.9 |
| 20260507024530 | 8 | 160 | 4.8 | 19.3 | 0.00 | 0.03 | 0.03 | 52 | 1012.5 |
| 20260507023032 | 9 | 141 | 6.4 | 20.9 | 0.00 | 0.03 | 0.03 | 50 | 1012.5 |
| 20260507021533 | 9 | 128 | 6.4 | 12.9 | 0.00 | 0.03 | 0.03 | 49 | 1012.3 |
| 20260507020043 | 8 | 244 | 6.4 | 19.3 | 0.00 | 0.03 | 0.03 | 51 | 1012.2 |
| 20260507014533 | 8 | 182 | 4.8 | 16.1 | 0.00 | 0.03 | 0.03 | 50 | 1012.3 |
| 20260507013046 | 9 | 175 | 3.2 | 14.5 | 0.00 | 0.03 | 0.03 | 50 | 1012.1 |
| 20260507011532 | 10 | 142 | 3.2 | 14.5 | 0.00 | 0.03 | 0.03 | 49 | 1012.1 |
| 20260507010035 | 10 | 175 | 3.2 | 14.5 | 0.00 | 0.03 | 0.03 | 53 | 1011.9 |
| 20260507004533 | 10 | 124 | 3.2 | 14.5 | 0.00 | 0.03 | 0.03 | 56 | 1011.7 |
| 20260507003041 | 9 | 169 | 6.4 | 20.9 | 0.00 | 0.03 | 0.03 | 57 | 1011.7 |
| 20260507001537 | 10 | 171 | 4.8 | 17.7 | 0.00 | 0.03 | 0.03 | 54 | 1011.6 |
| 20260507000034 | 9 | 213 | 3.2 | 11.3 | 0.00 | 0.03 | 0.03 | 55 | 1011.5 |
| 20260506234534 | 9 | 206 | 6.4 | 20.9 | 0.00 | 0.03 | 0.03 | 54 | 1011.4 |
| 20260506233032 | 9 | 0 | 0.0 | 12.9 | 0.00 | 0.03 | 0.03 | 59 | 1011.3 |
| 20260506231531 | 9 | 250 | 4.8 | 11.3 | 0.00 | 0.03 | 0.03 | 60 | 1011.3 |
| 20260506230030 | 9 | 205 | 3.2 | 14.5 | 0.00 | 0.03 | 0.03 | 58 | 1011.3 |
| 20260506224534 | 9 | 0 | 3.2 | 14.5 | 0.00 | 0.03 | 0.03 | 59 | 1011.3 |
| 20260506223041 | 9 | 236 | 6.4 | 16.1 | 0.00 | 0.03 | 0.03 | 60 | 1011.4 |
| 20260506221531 | 10 | 277 | 3.2 | 11.3 | 0.00 | 0.03 | 0.03 | 60 | 1011.5 |
| 20260506220033 | 9 | 0 | 1.6 | 9.7 | 0.00 | 0.03 | 0.03 | 65 | 1011.4 |
| 20260506214539 | 8 | 232 | 3.2 | 14.5 | 0.00 | 0.03 | 0.03 | 67 | 1011.5 |
| 20260506213030 | 8 | 200 | 1.6 | 4.8 | 0.00 | 0.03 | 0.03 | 69 | 1011.5 |
| 20260506211530 | 7 | 205 | 0.0 | 14.5 | 0.00 | 0.03 | 0.03 | 72 | 1011.3 |
| 20260506210032 | 8 | 229 | 3.2 | 9.7 | 0.00 | 0.03 | 0.03 | 72 | 1011.4 |
| 20260506204532 | 7 | 196 | 1.6 | 11.3 | 0.00 | 0.03 | 0.03 | 71 | 1011.4 |
| 20260506203033 | 7 | 167 | 3.2 | 8.0 | 0.00 | 0.03 | 0.03 | 75 | 1011.2 |
| 20260506201530 | 6 | 211 | 3.2 | 11.3 | 0.00 | 0.03 | 0.03 | 74 | 1011.3 |
| 20260506200030 | 6 | 197 | 1.6 | 9.7 | 0.00 | 0.03 | 0.03 | 78 | 1011.2 |
| 20260506194530 | 6 | 0 | 1.6 | 8.0 | 0.00 | 0.03 | 0.03 | 80 | 1011.3 |
| 20260506193032 | 5 | 180 | 3.2 | 9.7 | 0.00 | 0.03 | 0.03 | 82 | 1011.3 |
| 20260506191532 | 5 | 169 | 1.6 | 6.4 | 0.00 | 0.03 | 0.03 | 83 | 1011.4 |
| 20260506190032 | 4 | 153 | 1.6 | 6.4 | 0.00 | 0.03 | 0.03 | 84 | 1011.4 |
| 20260506184542 | 4 | 0 | 3.2 | 9.7 | 0.00 | 0.03 | 0.03 | 85 | 1011.4 |
| 20260506183038 | 4 | 194 | 3.2 | 9.7 | 0.00 | 0.03 | 0.03 | 85 | 1011.4 |
| 20260506181544 | 4 | 227 | 3.2 | 8.0 | 0.00 | 0.03 | 0.03 | 86 | 1011.3 |
| 20260506180034 | 3 | 157 | 1.6 | 6.4 | 0.00 | 0.03 | 0.03 | 88 | 1011.3 |
| 20260506174531 | 3 | 0 | 0.0 | 6.4 | 0.00 | 0.03 | 0.03 | 90 | 1011.5 |
| 20260506173031 | 3 | 218 | 3.2 | 6.4 | 0.00 | 0.03 | 0.03 | 89 | 1011.4 |
| 20260506171529 | 3 | 0 | 0.0 | 1.6 | 0.03 | 0.03 | 0.03 | 90 | 1011.4 |
| 20260506170028 | 3 | 0 | 0.0 | 1.6 | 0.03 | 0.03 | 0.03 | 89 | 1011.4 |
| 20260506164536 | 3 | 0 | 0.0 | 3.2 | 0.03 | 0.03 | 0.03 | 89 | 1011.3 |
| 20260506163032 | 3 | 0 | 0.0 | 6.4 | 0.03 | 0.03 | 0.03 | 89 | 1011.3 |
| 20260506161530 | 3 | 0 | 0.0 | 6.4 | 0.00 | 0.00 | 0.00 | 89 | 1011.3 |
| 20260506160030 | 3 | 0 | 0.0 | 8.0 | 0.00 | 0.00 | 0.00 | 89 | 1011.1 |
| 20260506154532 | 3 | 0 | 0.0 | 1.6 | 0.00 | 0.00 | 0.00 | 88 | 1011.1 |
| 20260506153036 | 3 | 0 | 0.0 | 1.6 | 0.00 | 0.00 | 0.00 | 88 | 1010.8 |
| 20260506151532 | 3 | 0 | 0.0 | 1.6 | 0.00 | 0.00 | 0.00 | 88 | 1010.9 |
| 20260506150034 | 2 | 0 | 0.0 | 0.0 | 0.00 | 0.00 | 0.00 | 89 | 1010.9 |
| 20260506144532 | 2 | 0 | 0.0 | 0.0 | 0.00 | 0.00 | 0.00 | 88 | 1010.9 |
| 20260506143032 | 2 | 0 | 0.0 | 0.0 | 0.00 | 0.00 | 0.00 | 89 | 1010.9 |
| 20260506141528 | 3 | 0 | 0.0 | 0.0 | 0.00 | 0.00 | 0.00 | 88 | 1010.9 |
| 20260506140030 | 3 | 0 | 0.0 | 0.0 | 0.00 | 0.00 | 0.00 | 87 | 1010.8 |
| 20260506134532 | 2 | 0 | 0.0 | 1.6 | 0.00 | 0.00 | 0.00 | 86 | 1010.6 |
| 20260506133032 | 2 | 0 | 0.0 | 3.2 | 0.00 | 0.00 | 0.00 | 86 | 1010.4 |
| 20260506131537 | 2 | 175 | 1.6 | 4.8 | 0.00 | 0.00 | 0.00 | 86 | 1010.3 |
| 20260506130032 | 2 | 207 | 3.2 | 8.0 | 0.00 | 0.00 | 0.00 | 85 | 1010.1 |
| 20260506124530 | 2 | 175 | 3.2 | 9.7 | 0.00 | 0.00 | 0.00 | 85 | 1010.0 |
| 20260506123028 | 2 | 217 | 4.8 | 9.7 | 0.00 | 0.00 | 0.00 | 84 | 1009.9 |
| 20260506121530 | 2 | 167 | 3.2 | 11.3 | 0.00 | 0.00 | 0.00 | 84 | 1009.8 |
| 20260506120034 | 2 | 215 | 3.2 | 12.9 | 0.00 | 0.00 | 0.00 | 85 | 1009.8 |
| 20260506114530 | 2 | 213 | 3.2 | 9.7 | 0.00 | 0.00 | 0.00 | 85 | 1009.9 |
| 20260506113037 | 2 | 198 | 4.8 | 11.3 | 0.00 | 0.00 | 0.00 | 85 | 1009.9 |